FW4396 Weather Reports


Display with metric or nautical units.
time (UTC)temp
F
wind
direction
speed
MPH
gust
MPH
rain 1hr
in
rain 24hr
in
rain mn
in
humidity
%
barometer
mb
20260504081509 38 284 0.0 1.0 0.00 0.00 0.00 79 1015.0
20260504044543 43 284 0.0 0.0 0.00 0.00 0.00 71 1014.7
20260504043043 43 284 0.0 0.0 0.00 0.00 0.00 70 1014.8
20260504041542 44 284 0.0 0.0 0.00 0.00 0.00 69 1014.8
20260504040040 44 284 0.0 0.0 0.00 0.00 0.00 68 1014.7
20260504034544 45 284 0.0 0.0 0.00 0.00 0.00 67 1014.7
20260504033034 45 284 0.0 0.0 0.00 0.00 0.00 66 1014.7
20260504031534 46 284 0.0 0.0 0.00 0.00 0.00 64 1014.5
20260504030036 47 284 0.0 0.0 0.00 0.00 0.00 63 1014.4
20260504024534 48 284 0.0 0.0 0.00 0.00 0.00 62 1014.4
20260504023032 49 284 0.0 0.0 0.00 0.00 0.00 57 1014.4
20260504021532 50 284 0.0 0.0 0.00 0.00 0.00 56 1014.5
20260504020037 51 284 0.0 2.0 0.00 0.00 0.00 54 1014.4
20260504014532 52 284 0.0 1.0 0.00 0.00 0.00 53 1014.3
20260504013037 53 284 0.0 1.0 0.00 0.00 0.00 48 1014.2
20260504011531 54 284 0.0 1.0 0.00 0.00 0.00 47 1014.2
20260504010029 55 284 1.0 3.0 0.00 0.00 0.00 46 1014.1
20260504004529 55 284 0.0 2.0 0.00 0.00 0.00 44 1014.0
20260504003028 56 284 0.0 3.0 0.00 0.00 0.00 43 1013.8
20260504001534 57 286 1.0 5.0 0.00 0.00 0.00 42 1013.6
20260504000027 58 292 2.0 6.0 0.00 0.00 0.00 40 1013.4
20260503234529 59 273 3.0 10.0 0.00 0.00 0.00 39 1013.2
20260503233026 60 285 3.0 10.0 0.00 0.00 0.00 38 1013.2
20260503231528 61 311 7.0 11.0 0.00 0.00 0.00 37 1013.1
20260503230037 61 289 7.0 15.0 0.00 0.00 0.00 35 1013.1
20260503224523 62 334 6.0 15.0 0.00 0.00 0.00 35 1013.2
20260503223024 62 265 6.0 15.0 0.00 0.00 0.00 35 1013.1
20260503221524 63 324 6.0 12.0 0.00 0.00 0.00 34 1013.1
20260503220022 63 269 6.0 12.0 0.00 0.00 0.00 36 1012.9
20260503214535 63 261 5.0 14.0 0.00 0.00 0.00 36 1013.1
20260503213021 63 290 8.0 16.0 0.00 0.00 0.00 34 1013.1
20260503211520 64 292 4.0 14.0 0.00 0.00 0.00 35 1013.0
20260503210020 63 271 6.0 18.0 0.00 0.00 0.00 34 1013.1
20260503204519 63 294 11.0 15.0 0.00 0.00 0.00 34 1013.1
20260503203022 64 302 8.0 15.0 0.00 0.00 0.00 33 1013.1
20260503201517 63 314 9.0 20.0 0.00 0.00 0.00 36 1013.1
20260503200017 63 291 11.0 20.0 0.00 0.00 0.00 34 1013.5
20260503194516 63 334 8.0 15.0 0.00 0.00 0.00 33 1013.7
20260503193028 62 271 6.0 15.0 0.00 0.00 0.00 35 1013.8
20260503191532 62 287 5.0 15.0 0.00 0.00 0.00 36 1014.0
20260503190024 61 342 5.0 20.0 0.00 0.00 0.00 39 1014.0
20260503184512 63 282 5.0 13.0 0.00 0.00 0.00 34 1014.2
20260503183010 61 314 8.0 17.0 0.00 0.00 0.00 36 1014.4
20260503181509 61 6 3.0 15.0 0.00 0.00 0.00 38 1014.5
20260503180007 58 294 6.0 15.0 0.00 0.00 0.00 41 1014.5
20260503174506 57 280 7.0 13.0 0.00 0.00 0.00 41 1014.8
20260503173005 59 301 7.0 14.0 0.00 0.00 0.00 40 1014.8
20260503171504 58 334 10.0 18.0 0.00 0.00 0.00 39 1014.9
20260503160108 57 319 7.0 16.0 0.00 0.00 0.00 39 1015.6